Terminal Aerodrome Forecast
Issued by NWS Rapid City, SD

Home | Current Version | Previous Version | Text Only | Print | Product List | Glossary Off
Versions: 1 2 3 4 5 6 7 8 9 10 11 12 13 14 15 16

000
FTUS43 KUNR 201700
TAFRAP
TAF
KRAP 201720Z 2018/2118 01010KT P6SM SCT250
     FM202100 34018G28KT P6SM SCT110 BKN250
     FM210300 33010KT P6SM SCT250=

USA.gov is the U.S. government's official web portal to all federal, state and local government web resources and services.